Year,Month,Day,Hour,Minute,Value (Times are PST for temperature in C)
2015,04,20,00,00,9.40
2015,04,20,00,01,9.40
2015,04,20,00,02,9.40
2015,04,20,00,03,9.40
2015,04,20,00,04,9.40
2015,04,20,00,05,9.40
2015,04,20,00,06,9.30
2015,04,20,00,07,9.20
2015,04,20,00,08,9.20
2015,04,20,00,09,9.20
2015,04,20,00,10,9.20
2015,04,20,00,11,9.20
2015,04,20,00,12,9.20
2015,04,20,00,13,9.10
2015,04,20,00,14,9.10
2015,04,20,00,15,9.10
2015,04,20,00,16,9.00
2015,04,20,00,17,9.00
2015,04,20,00,18,9.00
2015,04,20,00,19,9.00
2015,04,20,00,20,8.90
2015,04,20,00,21,8.90
2015,04,20,00,22,8.90
2015,04,20,00,23,8.90
2015,04,20,00,24,8.90
2015,04,20,00,25,8.90
2015,04,20,00,26,8.90
2015,04,20,00,27,8.80
2015,04,20,00,28,8.80
2015,04,20,00,29,8.80
2015,04,20,00,30,8.80
2015,04,20,00,31,8.70
2015,04,20,00,32,8.70
2015,04,20,00,33,8.70
2015,04,20,00,34,8.70
2015,04,20,00,35,8.70
2015,04,20,00,36,8.70
2015,04,20,00,37,8.70
2015,04,20,00,38,8.70
2015,04,20,00,39,8.60
2015,04,20,00,40,8.60
2015,04,20,00,41,8.60
2015,04,20,00,42,8.60
2015,04,20,00,43,8.60
2015,04,20,00,44,8.60
2015,04,20,00,45,8.60
2015,04,20,00,46,8.50
2015,04,20,00,47,8.50
2015,04,20,00,48,8.50
2015,04,20,00,49,8.50
2015,04,20,00,50,8.50
2015,04,20,00,51,8.40
2015,04,20,00,52,8.40
2015,04,20,00,53,8.40
2015,04,20,00,54,8.40
2015,04,20,00,55,8.40
2015,04,20,00,56,8.40
2015,04,20,00,57,8.40
2015,04,20,00,58,8.30
2015,04,20,00,59,8.30
2015,04,20,01,00,8.30
2015,04,20,01,01,8.30
2015,04,20,01,02,8.30
2015,04,20,01,03,8.40
2015,04,20,01,04,8.40
2015,04,20,01,05,8.40
2015,04,20,01,06,8.40
2015,04,20,01,07,8.40
2015,04,20,01,08,8.40
2015,04,20,01,09,8.40
2015,04,20,01,10,8.40
2015,04,20,01,11,8.40
2015,04,20,01,12,8.50
2015,04,20,01,13,8.50
2015,04,20,01,14,8.60
2015,04,20,01,15,8.70
2015,04,20,01,16,8.90
2015,04,20,01,17,9.00
2015,04,20,01,18,9.10
2015,04,20,01,19,9.20
2015,04,20,01,20,9.30
2015,04,20,01,21,9.40
2015,04,20,01,22,9.40
2015,04,20,01,23,9.50
2015,04,20,01,24,9.50
2015,04,20,01,25,9.50
2015,04,20,01,26,9.50
2015,04,20,01,27,9.50
2015,04,20,01,28,9.50
2015,04,20,01,29,9.50
2015,04,20,01,30,9.40
2015,04,20,01,31,9.40
2015,04,20,01,32,9.30
2015,04,20,01,33,9.30
2015,04,20,01,34,9.20
2015,04,20,01,35,9.20
2015,04,20,01,36,9.10
2015,04,20,01,37,9.10
2015,04,20,01,38,9.00
2015,04,20,01,39,8.90
2015,04,20,01,40,8.90
2015,04,20,01,41,8.80
2015,04,20,01,42,8.80
2015,04,20,01,43,8.70
2015,04,20,01,44,8.70
2015,04,20,01,45,8.70
2015,04,20,01,46,8.70
2015,04,20,01,47,8.60
2015,04,20,01,48,8.60
2015,04,20,01,49,8.50
2015,04,20,01,50,8.50
2015,04,20,01,51,8.50
2015,04,20,01,52,8.40
2015,04,20,01,53,8.40
2015,04,20,01,54,8.30
2015,04,20,01,55,8.30
2015,04,20,01,56,8.30
2015,04,20,01,57,8.30
2015,04,20,01,58,8.20
2015,04,20,01,59,8.20
2015,04,20,02,00,8.20
2015,04,20,02,01,8.20
2015,04,20,02,02,8.20
2015,04,20,02,03,8.10
2015,04,20,02,04,8.10
2015,04,20,02,05,8.10
2015,04,20,02,06,8.00
2015,04,20,02,07,8.00
2015,04,20,02,08,7.90
2015,04,20,02,09,7.90
2015,04,20,02,10,7.90
2015,04,20,02,11,7.90
2015,04,20,02,12,7.90
2015,04,20,02,13,7.90
2015,04,20,02,14,7.80
2015,04,20,02,15,7.80
2015,04,20,02,16,7.80
2015,04,20,02,17,7.80
2015,04,20,02,18,7.80
2015,04,20,02,19,7.80
2015,04,20,02,20,7.80
2015,04,20,02,21,7.80
2015,04,20,02,22,7.80
2015,04,20,02,23,7.70
2015,04,20,02,24,7.70
2015,04,20,02,25,7.70
2015,04,20,02,26,7.70
2015,04,20,02,27,7.70
2015,04,20,02,28,7.70
2015,04,20,02,29,7.70
2015,04,20,02,30,7.60
2015,04,20,02,31,7.60
2015,04,20,02,32,7.60
2015,04,20,02,33,7.60
2015,04,20,02,34,7.60
2015,04,20,02,35,7.50
2015,04,20,02,36,7.50
2015,04,20,02,37,7.50
2015,04,20,02,38,7.40
2015,04,20,02,39,7.40
2015,04,20,02,40,7.40
2015,04,20,02,41,7.40
2015,04,20,02,42,7.30
2015,04,20,02,43,7.30
2015,04,20,02,44,7.30
2015,04,20,02,45,7.30
2015,04,20,02,46,7.30
2015,04,20,02,47,7.20
2015,04,20,02,48,7.20
2015,04,20,02,49,7.20
2015,04,20,02,50,7.20
2015,04,20,02,51,7.10
2015,04,20,02,52,7.10
2015,04,20,02,53,7.10
2015,04,20,02,54,7.00
2015,04,20,02,55,7.00
2015,04,20,02,56,7.00
2015,04,20,02,57,6.90
2015,04,20,02,58,6.90
2015,04,20,02,59,6.90
2015,04,20,03,00,6.80
2015,04,20,03,01,6.80
2015,04,20,03,02,6.80
2015,04,20,03,03,6.80
2015,04,20,03,04,6.80
2015,04,20,03,05,6.80
2015,04,20,03,06,6.80
2015,04,20,03,07,6.70
2015,04,20,03,08,6.70
2015,04,20,03,09,6.70
2015,04,20,03,10,6.70
2015,04,20,03,11,6.70
2015,04,20,03,12,6.70
2015,04,20,03,13,6.70
2015,04,20,03,14,6.70
2015,04,20,03,15,6.70
2015,04,20,03,16,6.70
2015,04,20,03,17,6.70
2015,04,20,03,18,6.70
2015,04,20,03,19,6.70
2015,04,20,03,20,6.80
2015,04,20,03,21,6.80
2015,04,20,03,22,6.80
2015,04,20,03,23,6.80
2015,04,20,03,24,6.80
2015,04,20,03,25,6.80
2015,04,20,03,26,6.80
2015,04,20,03,27,6.80
2015,04,20,03,28,6.80
2015,04,20,03,29,6.80
2015,04,20,03,30,6.80
2015,04,20,03,31,6.80
2015,04,20,03,32,6.80
2015,04,20,03,33,6.80
2015,04,20,03,34,6.80
2015,04,20,03,35,6.80
2015,04,20,03,36,6.70
2015,04,20,03,37,6.70
2015,04,20,03,38,6.70
2015,04,20,03,39,6.70
2015,04,20,03,40,6.60
2015,04,20,03,41,6.60
2015,04,20,03,42,6.60
2015,04,20,03,43,6.60
2015,04,20,03,44,6.60
2015,04,20,03,45,6.60
2015,04,20,03,46,6.60
2015,04,20,03,47,6.60
2015,04,20,03,48,6.60
2015,04,20,03,49,6.60
2015,04,20,03,50,6.60
2015,04,20,03,51,6.60
2015,04,20,03,52,6.50
2015,04,20,03,53,6.40
2015,04,20,03,54,6.40
2015,04,20,03,55,6.40
2015,04,20,03,56,6.40
2015,04,20,03,57,6.40
2015,04,20,03,58,6.40
2015,04,20,03,59,6.40
2015,04,20,04,00,6.40
2015,04,20,04,01,6.40
2015,04,20,04,02,6.40
2015,04,20,04,03,6.40
2015,04,20,04,04,6.40
2015,04,20,04,05,6.40
2015,04,20,04,06,6.40
2015,04,20,04,07,6.40
2015,04,20,04,08,6.30
2015,04,20,04,09,6.30
2015,04,20,04,10,6.30
2015,04,20,04,11,6.30
2015,04,20,04,12,6.30
2015,04,20,04,13,6.40
2015,04,20,04,14,6.40
2015,04,20,04,15,6.40
2015,04,20,04,16,6.40
2015,04,20,04,17,6.40
2015,04,20,04,18,6.30
2015,04,20,04,19,6.30
2015,04,20,04,20,6.30
2015,04,20,04,21,6.30
2015,04,20,04,22,6.30
2015,04,20,04,23,6.30
2015,04,20,04,24,6.30
2015,04,20,04,25,6.30
2015,04,20,04,26,6.30
2015,04,20,04,27,6.30
2015,04,20,04,28,6.30
2015,04,20,04,29,6.30
2015,04,20,04,30,6.20
2015,04,20,04,31,6.20
2015,04,20,04,32,6.20
2015,04,20,04,33,6.20
2015,04,20,04,34,6.10
2015,04,20,04,35,6.10
2015,04,20,04,36,6.10
2015,04,20,04,37,6.20
2015,04,20,04,38,6.20
2015,04,20,04,39,6.20
2015,04,20,04,40,6.20
2015,04,20,04,41,6.20
2015,04,20,04,42,6.20
2015,04,20,04,43,6.20
2015,04,20,04,44,6.10
2015,04,20,04,45,6.10
2015,04,20,04,46,6.10
2015,04,20,04,47,6.10
2015,04,20,04,48,6.10
2015,04,20,04,49,6.10
2015,04,20,04,50,6.00
2015,04,20,04,51,6.00
2015,04,20,04,52,6.00
2015,04,20,04,53,6.00
2015,04,20,04,54,6.00
2015,04,20,04,55,5.90
2015,04,20,04,56,5.90
2015,04,20,04,57,5.90
2015,04,20,04,58,5.90
2015,04,20,04,59,6.00
2015,04,20,05,00,6.00
2015,04,20,05,01,6.00
2015,04,20,05,02,6.00
2015,04,20,05,03,6.00
2015,04,20,05,04,6.00
2015,04,20,05,05,6.00
2015,04,20,05,06,6.00
2015,04,20,05,07,6.00
2015,04,20,05,08,6.00
2015,04,20,05,09,5.90
2015,04,20,05,10,5.90
2015,04,20,05,11,5.90
2015,04,20,05,12,5.80
2015,04,20,05,13,5.80
2015,04,20,05,14,5.80
2015,04,20,05,15,5.80
2015,04,20,05,16,5.80
2015,04,20,05,17,5.70
2015,04,20,05,18,5.70
2015,04,20,05,19,5.70
2015,04,20,05,20,5.70
2015,04,20,05,21,5.70
2015,04,20,05,22,5.70
2015,04,20,05,23,5.70
2015,04,20,05,24,5.70
2015,04,20,05,25,5.70
2015,04,20,05,26,5.70
2015,04,20,05,27,5.70
2015,04,20,05,28,5.70
2015,04,20,05,29,5.70
2015,04,20,05,30,5.70
2015,04,20,05,31,5.70
2015,04,20,05,32,5.70
2015,04,20,05,33,5.70
2015,04,20,05,34,5.70
2015,04,20,05,35,5.70
2015,04,20,05,36,5.70
2015,04,20,05,37,5.70
2015,04,20,05,38,5.60
2015,04,20,05,39,5.60
2015,04,20,05,40,5.60
2015,04,20,05,41,5.50
2015,04,20,05,42,5.50
2015,04,20,05,43,5.50
2015,04,20,05,44,5.50
2015,04,20,05,45,5.50
2015,04,20,05,46,5.50
2015,04,20,05,47,5.50
2015,04,20,05,48,5.40
2015,04,20,05,49,5.40
2015,04,20,05,50,5.40
2015,04,20,05,51,5.40
2015,04,20,05,52,5.40
2015,04,20,05,53,5.30
2015,04,20,05,54,5.30
2015,04,20,05,55,5.30
2015,04,20,05,56,5.30
2015,04,20,05,57,5.30
2015,04,20,05,58,5.40
2015,04,20,05,59,5.30
2015,04,20,06,00,5.30
2015,04,20,06,01,5.30
2015,04,20,06,02,5.30
2015,04,20,06,03,5.30
2015,04,20,06,04,5.30
2015,04,20,06,05,5.30
2015,04,20,06,06,5.30
2015,04,20,06,07,5.30
2015,04,20,06,08,5.30
2015,04,20,06,09,5.30
2015,04,20,06,10,5.30
2015,04,20,06,11,5.30
2015,04,20,06,12,5.30
2015,04,20,06,13,5.30
2015,04,20,06,14,5.30
2015,04,20,06,15,5.30
2015,04,20,06,16,5.30
2015,04,20,06,17,5.30
2015,04,20,06,18,5.30
2015,04,20,06,19,5.30
2015,04,20,06,20,5.30
2015,04,20,06,21,5.30
2015,04,20,06,22,5.40
2015,04,20,06,23,5.40
2015,04,20,06,24,5.40
2015,04,20,06,25,5.40
2015,04,20,06,26,5.40
2015,04,20,06,27,5.30
2015,04,20,06,28,5.30
2015,04,20,06,29,5.30
2015,04,20,06,30,5.30
2015,04,20,06,31,5.40
2015,04,20,06,32,5.40
2015,04,20,06,33,5.40
2015,04,20,06,34,5.40
2015,04,20,06,35,5.50
2015,04,20,06,36,5.50
2015,04,20,06,37,5.50
2015,04,20,06,38,5.40
2015,04,20,06,39,5.40
2015,04,20,06,40,5.40
2015,04,20,06,41,5.30
2015,04,20,06,42,5.30
2015,04,20,06,43,5.30
2015,04,20,06,44,5.30
2015,04,20,06,45,5.30
2015,04,20,06,46,5.30
2015,04,20,06,47,5.30
2015,04,20,06,48,5.30
2015,04,20,06,49,5.30
2015,04,20,06,50,5.30
2015,04,20,06,51,5.30
2015,04,20,06,52,5.30
2015,04,20,06,53,5.30
2015,04,20,06,54,5.50
2015,04,20,06,55,5.50
2015,04,20,06,56,5.60
2015,04,20,06,57,5.70
2015,04,20,06,58,5.70
2015,04,20,06,59,5.70
2015,04,20,07,00,5.70
2015,04,20,07,01,5.70
2015,04,20,07,02,5.70
2015,04,20,07,03,5.80
2015,04,20,07,04,5.80
2015,04,20,07,05,5.90
2015,04,20,07,06,5.90
2015,04,20,07,07,5.90
2015,04,20,07,08,5.90
2015,04,20,07,09,6.00
2015,04,20,07,10,6.00
2015,04,20,07,11,6.00
2015,04,20,07,12,6.10
2015,04,20,07,13,6.10
2015,04,20,07,14,6.20
2015,04,20,07,15,6.20
2015,04,20,07,16,6.20
2015,04,20,07,17,6.20
2015,04,20,07,18,6.30
2015,04,20,07,19,6.40
2015,04,20,07,20,6.50
2015,04,20,07,21,6.60
2015,04,20,07,22,6.80
2015,04,20,07,23,6.90
2015,04,20,07,24,7.00
2015,04,20,07,25,7.10
2015,04,20,07,26,7.30
2015,04,20,07,27,7.40
2015,04,20,07,28,7.50
2015,04,20,07,29,7.60
2015,04,20,07,30,7.70
2015,04,20,07,31,7.80
2015,04,20,07,32,7.90
2015,04,20,07,33,8.00
2015,04,20,07,34,8.10
2015,04,20,07,35,8.20
2015,04,20,07,36,8.40
2015,04,20,07,37,8.50
2015,04,20,07,38,8.60
2015,04,20,07,39,8.70
2015,04,20,07,40,8.80
2015,04,20,07,41,8.80
2015,04,20,07,42,8.90
2015,04,20,07,43,8.90
2015,04,20,07,44,9.00
2015,04,20,07,45,9.00
2015,04,20,07,46,9.00
2015,04,20,07,47,9.10
2015,04,20,07,48,9.10
2015,04,20,07,49,9.20
2015,04,20,07,50,9.30
2015,04,20,07,51,9.50
2015,04,20,07,52,9.60
2015,04,20,07,53,9.80
2015,04,20,07,54,10.00
2015,04,20,07,55,10.20
2015,04,20,07,56,10.30
2015,04,20,07,57,10.50
2015,04,20,07,58,10.60
2015,04,20,07,59,10.70
2015,04,20,08,00,10.80
2015,04,20,08,01,10.80
2015,04,20,08,02,10.70
2015,04,20,08,03,10.70
2015,04,20,08,04,10.70
2015,04,20,08,05,10.70
2015,04,20,08,06,10.70
2015,04,20,08,07,10.80
2015,04,20,08,08,10.80
2015,04,20,08,09,10.80
2015,04,20,08,10,10.80
2015,04,20,08,11,10.80
2015,04,20,08,12,10.80
2015,04,20,08,13,10.80
2015,04,20,08,14,10.80
2015,04,20,08,15,10.80
2015,04,20,08,16,10.80
2015,04,20,08,17,10.90
2015,04,20,08,18,10.90
2015,04,20,08,19,10.90
2015,04,20,08,20,11.10
2015,04,20,08,21,11.10
2015,04,20,08,22,11.10
2015,04,20,08,23,11.10
2015,04,20,08,24,11.10
2015,04,20,08,25,11.20
2015,04,20,08,26,11.30
2015,04,20,08,27,11.30
2015,04,20,08,28,11.40
2015,04,20,08,29,11.40
2015,04,20,08,30,11.50
2015,04,20,08,31,11.60
2015,04,20,08,32,11.60
2015,04,20,08,33,11.60
2015,04,20,08,34,11.70
2015,04,20,08,35,11.70
2015,04,20,08,36,11.70
2015,04,20,08,37,11.80
2015,04,20,08,38,11.80
2015,04,20,08,39,11.90
2015,04,20,08,40,12.00
2015,04,20,08,41,12.00
2015,04,20,08,42,12.00
2015,04,20,08,43,12.10
2015,04,20,08,44,12.10
2015,04,20,08,45,12.20
2015,04,20,08,46,12.20
2015,04,20,08,47,12.20
2015,04,20,08,48,12.20
2015,04,20,08,49,12.20
2015,04,20,08,50,12.30
2015,04,20,08,51,12.30
2015,04,20,08,52,12.30
2015,04,20,08,53,12.30
2015,04,20,08,54,12.30
2015,04,20,08,55,12.40
2015,04,20,08,56,12.50
2015,04,20,08,57,12.50
2015,04,20,08,58,12.60
2015,04,20,08,59,12.70
2015,04,20,09,00,12.70
2015,04,20,09,01,12.80
2015,04,20,09,02,12.80
2015,04,20,09,03,12.80
2015,04,20,09,04,12.80
2015,04,20,09,05,12.80
2015,04,20,09,06,12.80
2015,04,20,09,07,12.80
2015,04,20,09,08,12.80
2015,04,20,09,09,12.80
2015,04,20,09,10,12.70
2015,04,20,09,11,12.70
2015,04,20,09,12,12.80
2015,04,20,09,13,12.80
2015,04,20,09,14,12.80
2015,04,20,09,15,12.80
2015,04,20,09,16,12.80
2015,04,20,09,17,12.80
2015,04,20,09,18,12.80
2015,04,20,09,19,12.90
2015,04,20,09,20,12.90
2015,04,20,09,21,13.00
2015,04,20,09,22,13.00
2015,04,20,09,23,12.90
2015,04,20,09,24,12.90
2015,04,20,09,25,12.90
2015,04,20,09,26,13.00
2015,04,20,09,27,13.00
2015,04,20,09,28,13.00
2015,04,20,09,29,13.00
2015,04,20,09,30,13.00
2015,04,20,09,31,13.00
2015,04,20,09,32,12.90
2015,04,20,09,33,13.00
2015,04,20,09,34,13.00
2015,04,20,09,35,13.00
2015,04,20,09,36,12.90
2015,04,20,09,37,12.90
2015,04,20,09,38,12.80
2015,04,20,09,39,12.80
2015,04,20,09,40,12.80
2015,04,20,09,41,12.80
2015,04,20,09,42,12.90
2015,04,20,09,43,12.90
2015,04,20,09,44,13.00
2015,04,20,09,45,13.00
2015,04,20,09,46,13.10
2015,04,20,09,47,13.10
2015,04,20,09,48,13.20
2015,04,20,09,49,13.20
2015,04,20,09,50,13.20
2015,04,20,09,51,13.20
2015,04,20,09,52,13.20
2015,04,20,09,53,13.20
2015,04,20,09,54,13.20
2015,04,20,09,55,13.20
2015,04,20,09,56,13.20
2015,04,20,09,57,13.30
2015,04,20,09,58,13.30
2015,04,20,09,59,13.30
2015,04,20,10,00,13.40
2015,04,20,10,01,13.40
2015,04,20,10,02,13.30
2015,04,20,10,03,13.30
2015,04,20,10,04,13.30
2015,04,20,10,05,13.30
2015,04,20,10,06,13.30
2015,04,20,10,07,13.30
2015,04,20,10,08,13.30
2015,04,20,10,09,13.30
2015,04,20,10,10,13.30
2015,04,20,10,11,13.30
2015,04,20,10,12,13.30
2015,04,20,10,13,13.30
2015,04,20,10,14,13.30
2015,04,20,10,15,13.30
2015,04,20,10,16,13.30
2015,04,20,10,17,13.30
2015,04,20,10,18,13.30
2015,04,20,10,19,13.40
2015,04,20,10,20,13.50
2015,04,20,10,21,13.50
2015,04,20,10,22,13.60
2015,04,20,10,23,13.60
2015,04,20,10,24,13.60
2015,04,20,10,25,13.60
2015,04,20,10,26,13.60
2015,04,20,10,27,13.70
2015,04,20,10,28,13.70
2015,04,20,10,29,13.80
2015,04,20,10,30,13.90
2015,04,20,10,31,13.90
2015,04,20,10,32,13.90
2015,04,20,10,33,14.00
2015,04,20,10,34,14.00
2015,04,20,10,35,14.10
2015,04,20,10,36,14.10
2015,04,20,10,37,14.20
2015,04,20,10,38,14.20
2015,04,20,10,39,14.20
2015,04,20,10,40,14.20
2015,04,20,10,41,14.20
2015,04,20,10,42,14.10
2015,04,20,10,43,14.10
2015,04,20,10,44,14.20
2015,04,20,10,45,14.20
2015,04,20,10,46,14.20
2015,04,20,10,47,14.30
2015,04,20,10,48,14.30
2015,04,20,10,49,14.30
2015,04,20,10,50,14.30
2015,04,20,10,51,14.30
2015,04,20,10,52,14.40
2015,04,20,10,53,14.40
2015,04,20,10,54,14.50
2015,04,20,10,55,14.50
2015,04,20,10,56,14.60
2015,04,20,10,57,14.60
2015,04,20,10,58,14.60
2015,04,20,10,59,14.70
2015,04,20,11,00,14.70
2015,04,20,11,01,14.80
2015,04,20,11,02,14.70
2015,04,20,11,03,14.70
2015,04,20,11,04,14.80
2015,04,20,11,05,14.80
2015,04,20,11,06,14.80
2015,04,20,11,07,14.80
2015,04,20,11,08,14.70
2015,04,20,11,09,14.70
2015,04,20,11,10,14.70
2015,04,20,11,11,14.70
2015,04,20,11,12,14.80
2015,04,20,11,13,14.80
2015,04,20,11,14,14.80
2015,04,20,11,15,14.80
2015,04,20,11,16,14.80
2015,04,20,11,17,14.80
2015,04,20,11,18,14.80
2015,04,20,11,19,14.80
2015,04,20,11,20,14.80
2015,04,20,11,21,14.90
2015,04,20,11,22,14.90
2015,04,20,11,23,14.90
2015,04,20,11,24,14.90
2015,04,20,11,25,14.90
2015,04,20,11,26,14.90
2015,04,20,11,27,14.90
2015,04,20,11,28,14.90
2015,04,20,11,29,14.90
2015,04,20,11,30,14.90
2015,04,20,11,31,14.90
2015,04,20,11,32,14.80
2015,04,20,11,33,14.80
2015,04,20,11,34,14.70
2015,04,20,11,35,14.60
2015,04,20,11,36,14.60
2015,04,20,11,37,14.60
2015,04,20,11,38,14.60
2015,04,20,11,39,14.50
2015,04,20,11,40,14.50
2015,04,20,11,41,14.50
2015,04,20,11,42,14.40
2015,04,20,11,43,14.50
2015,04,20,11,44,14.50
2015,04,20,11,45,14.50
2015,04,20,11,46,14.60
2015,04,20,11,47,14.60
2015,04,20,11,48,14.70
2015,04,20,11,49,14.60
2015,04,20,11,50,14.60
2015,04,20,11,51,14.60
2015,04,20,11,52,14.60
2015,04,20,11,53,14.60
2015,04,20,11,54,14.60
2015,04,20,11,55,14.60
2015,04,20,11,56,14.60
2015,04,20,11,57,14.60
2015,04,20,11,58,14.60
2015,04,20,11,59,14.60
2015,04,20,12,00,14.70
2015,04,20,12,01,14.70
2015,04,20,12,02,14.70
2015,04,20,12,03,14.70
2015,04,20,12,04,14.80
2015,04,20,12,05,14.80
2015,04,20,12,06,14.80
2015,04,20,12,07,14.80
2015,04,20,12,08,14.80
2015,04,20,12,09,14.80
2015,04,20,12,10,14.90
2015,04,20,12,11,15.00
2015,04,20,12,12,15.10
2015,04,20,12,13,15.10
2015,04,20,12,14,15.20
2015,04,20,12,15,15.20
2015,04,20,12,16,15.30
2015,04,20,12,17,15.30
2015,04,20,12,18,15.30
2015,04,20,12,19,15.30
2015,04,20,12,20,15.20
2015,04,20,12,21,15.20
2015,04,20,12,22,15.20
2015,04,20,12,23,15.10
2015,04,20,12,24,15.10
2015,04,20,12,25,15.20
2015,04,20,12,26,15.30
2015,04,20,12,27,15.30
2015,04,20,12,28,15.30
2015,04,20,12,29,15.30
2015,04,20,12,30,15.20
2015,04,20,12,31,15.20
2015,04,20,12,32,15.20
2015,04,20,12,33,15.30
2015,04,20,12,34,15.30
2015,04,20,12,35,15.30
2015,04,20,12,36,15.40
2015,04,20,12,37,15.50
2015,04,20,12,38,15.50
2015,04,20,12,39,15.50
2015,04,20,12,40,15.50
2015,04,20,12,41,15.50
2015,04,20,12,42,15.60
2015,04,20,12,43,15.60
2015,04,20,12,44,15.60
2015,04,20,12,45,15.50
2015,04,20,12,46,15.50
2015,04,20,12,47,15.60
2015,04,20,12,48,15.60
2015,04,20,12,49,15.70
2015,04,20,12,50,15.80
2015,04,20,12,51,15.80
2015,04,20,12,52,15.80
2015,04,20,12,53,15.90
2015,04,20,12,54,16.00
2015,04,20,12,55,16.10
2015,04,20,12,56,16.10
2015,04,20,12,57,16.10
2015,04,20,12,58,16.10
2015,04,20,12,59,16.10
2015,04,20,13,00,16.10
2015,04,20,13,01,16.10
2015,04,20,13,02,16.30
2015,04,20,13,03,16.30
2015,04,20,13,04,16.30
2015,04,20,13,05,16.30
2015,04,20,13,06,16.30
2015,04,20,13,07,16.30
2015,04,20,13,08,16.40
2015,04,20,13,09,16.40
2015,04,20,13,10,16.40
2015,04,20,13,11,16.40
2015,04,20,13,12,16.50
2015,04,20,13,13,16.60
2015,04,20,13,14,16.60
2015,04,20,13,15,16.60
2015,04,20,13,16,16.70
2015,04,20,13,17,16.70
2015,04,20,13,18,16.70
2015,04,20,13,19,16.70
2015,04,20,13,20,16.70
2015,04,20,13,21,16.70
2015,04,20,13,22,16.70
2015,04,20,13,23,16.70
2015,04,20,13,24,16.80
2015,04,20,13,25,16.90
2015,04,20,13,26,16.90
2015,04,20,13,27,17.00
2015,04,20,13,28,17.00
2015,04,20,13,29,17.10
2015,04,20,13,30,17.10
2015,04,20,13,31,17.20
2015,04,20,13,32,17.20
2015,04,20,13,33,17.20
2015,04,20,13,34,17.20
2015,04,20,13,35,17.20
2015,04,20,13,36,17.20
2015,04,20,13,37,17.20
2015,04,20,13,38,17.20
2015,04,20,13,39,17.30
2015,04,20,13,40,17.20
2015,04,20,13,41,17.10
2015,04,20,13,42,17.00
2015,04,20,13,43,17.00
2015,04,20,13,44,17.00
2015,04,20,13,45,16.90
2015,04,20,13,46,16.80
2015,04,20,13,47,16.90
2015,04,20,13,48,17.00
2015,04,20,13,49,17.00
2015,04,20,13,50,17.00
2015,04,20,13,51,17.00
2015,04,20,13,52,17.00
2015,04,20,13,53,17.00
2015,04,20,13,54,17.00
2015,04,20,13,55,17.00
2015,04,20,13,56,17.00
2015,04,20,13,57,17.00
2015,04,20,13,58,17.10
2015,04,20,13,59,17.10
2015,04,20,14,00,17.20
2015,04,20,14,01,17.20
2015,04,20,14,02,17.20
2015,04,20,14,03,17.20
2015,04,20,14,04,17.20
2015,04,20,14,05,17.20
2015,04,20,14,06,17.20
2015,04,20,14,07,17.30
2015,04,20,14,08,17.30
2015,04,20,14,09,17.40
2015,04,20,14,10,17.40
2015,04,20,14,11,17.50
2015,04,20,14,12,17.50
2015,04,20,14,13,17.60
2015,04,20,14,14,17.60
2015,04,20,14,15,17.60
2015,04,20,14,16,17.60
2015,04,20,14,17,17.60
2015,04,20,14,18,17.60
2015,04,20,14,19,17.60
2015,04,20,14,20,17.60
2015,04,20,14,21,17.60
2015,04,20,14,22,17.70
2015,04,20,14,23,17.70
2015,04,20,14,24,17.80
2015,04,20,14,25,17.80
2015,04,20,14,26,17.80
2015,04,20,14,27,17.90
2015,04,20,14,28,18.00
2015,04,20,14,29,18.10
2015,04,20,14,30,18.20
2015,04,20,14,31,18.20
2015,04,20,14,32,18.20
2015,04,20,14,33,18.20
2015,04,20,14,34,18.20
2015,04,20,14,35,18.20
2015,04,20,14,36,18.20
2015,04,20,14,37,18.20
2015,04,20,14,38,18.20
2015,04,20,14,39,18.10
2015,04,20,14,40,18.10
2015,04,20,14,41,18.00
2015,04,20,14,42,17.90
2015,04,20,14,43,17.90
2015,04,20,14,44,17.90
2015,04,20,14,45,18.00
2015,04,20,14,46,18.10
2015,04,20,14,47,18.10
2015,04,20,14,48,18.10
2015,04,20,14,49,18.10
2015,04,20,14,50,18.10
2015,04,20,14,51,18.10
2015,04,20,14,52,18.20
2015,04,20,14,53,18.20
2015,04,20,14,54,18.20
2015,04,20,14,55,18.30
2015,04,20,14,56,18.30
2015,04,20,14,57,18.30
2015,04,20,14,58,18.30
2015,04,20,14,59,18.40
2015,04,20,15,00,18.40
2015,04,20,15,01,18.50
2015,04,20,15,02,18.50
2015,04,20,15,03,18.60
2015,04,20,15,04,18.60
2015,04,20,15,05,18.70
2015,04,20,15,06,18.70
2015,04,20,15,07,18.80
2015,04,20,15,08,18.80
2015,04,20,15,09,18.90
2015,04,20,15,10,18.90
2015,04,20,15,11,18.90
2015,04,20,15,12,18.90
2015,04,20,15,13,18.90
2015,04,20,15,14,18.90
2015,04,20,15,15,18.90
2015,04,20,15,16,18.90
2015,04,20,15,17,18.90
2015,04,20,15,18,18.90
2015,04,20,15,19,18.90
2015,04,20,15,20,19.00
2015,04,20,15,21,19.10
2015,04,20,15,22,19.10
2015,04,20,15,23,19.10
2015,04,20,15,24,19.10
2015,04,20,15,25,19.10
2015,04,20,15,26,19.10
2015,04,20,15,27,19.20
2015,04,20,15,28,19.30
2015,04,20,15,29,19.40
2015,04,20,15,30,19.40
2015,04,20,15,31,19.50
2015,04,20,15,32,19.60
2015,04,20,15,33,19.60
2015,04,20,15,34,19.60
2015,04,20,15,35,19.70
2015,04,20,15,36,19.70
2015,04,20,15,37,19.80
2015,04,20,15,38,19.80
2015,04,20,15,39,19.90
2015,04,20,15,40,19.90
2015,04,20,15,41,19.90
2015,04,20,15,42,19.90
2015,04,20,15,43,19.90
2015,04,20,15,44,19.90
2015,04,20,15,45,19.90
2015,04,20,15,46,20.00
2015,04,20,15,47,20.10
2015,04,20,15,48,20.20
2015,04,20,15,49,20.10
2015,04,20,15,50,20.10
2015,04,20,15,51,20.00
2015,04,20,15,52,20.10
2015,04,20,15,53,20.10
2015,04,20,15,54,20.20
2015,04,20,15,55,20.20
2015,04,20,15,56,20.20
2015,04,20,15,57,20.20
2015,04,20,15,58,20.20
2015,04,20,15,59,20.20
2015,04,20,16,00,20.20
2015,04,20,16,01,20.30
2015,04,20,16,02,20.30
2015,04,20,16,03,20.20
2015,04,20,16,04,20.20
2015,04,20,16,05,20.30
2015,04,20,16,06,20.30
2015,04,20,16,07,20.30
2015,04,20,16,08,20.30
2015,04,20,16,09,20.30
2015,04,20,16,10,20.30
2015,04,20,16,11,20.30
2015,04,20,16,12,20.30
2015,04,20,16,13,20.40
2015,04,20,16,14,20.40
2015,04,20,16,15,20.40
2015,04,20,16,16,20.30
2015,04,20,16,17,20.20
2015,04,20,16,18,20.20
2015,04,20,16,19,20.20
2015,04,20,16,20,20.30
2015,04,20,16,21,20.30
2015,04,20,16,22,20.20
2015,04,20,16,23,20.20
2015,04,20,16,24,20.20
2015,04,20,16,25,20.20
2015,04,20,16,26,20.20
2015,04,20,16,27,20.20
2015,04,20,16,28,20.10
2015,04,20,16,29,20.00
2015,04,20,16,30,19.90
2015,04,20,16,31,19.90
2015,04,20,16,32,20.00
2015,04,20,16,33,20.10
2015,04,20,16,34,20.20
2015,04,20,16,35,20.30
2015,04,20,16,36,20.40
2015,04,20,16,37,20.50
2015,04,20,16,38,20.40
2015,04,20,16,39,20.50
2015,04,20,16,40,20.40
2015,04,20,16,41,20.30
2015,04,20,16,42,20.20
2015,04,20,16,43,20.20
2015,04,20,16,44,20.20
2015,04,20,16,45,20.20
2015,04,20,16,46,20.20
2015,04,20,16,47,20.30
2015,04,20,16,48,20.40
2015,04,20,16,49,20.40
2015,04,20,16,50,20.40
2015,04,20,16,51,20.40
2015,04,20,16,52,20.40
2015,04,20,16,53,20.40
2015,04,20,16,54,20.40
2015,04,20,16,55,20.40
2015,04,20,16,56,20.40
2015,04,20,16,57,20.40
2015,04,20,16,58,20.40
2015,04,20,16,59,20.40
2015,04,20,17,00,20.40
2015,04,20,17,01,20.50
2015,04,20,17,02,20.50
2015,04,20,17,03,20.50
2015,04,20,17,04,20.50
2015,04,20,17,05,20.50
2015,04,20,17,06,20.50
2015,04,20,17,07,20.50
2015,04,20,17,08,20.50
2015,04,20,17,09,20.60
2015,04,20,17,10,20.50
2015,04,20,17,11,20.50
2015,04,20,17,12,20.50
2015,04,20,17,13,20.50
2015,04,20,17,14,20.50
2015,04,20,17,15,20.50
2015,04,20,17,16,20.40
2015,04,20,17,17,20.40
2015,04,20,17,18,20.40
2015,04,20,17,19,20.40
2015,04,20,17,20,20.40
2015,04,20,17,21,20.40
2015,04,20,17,22,20.30
2015,04,20,17,23,20.30
2015,04,20,17,24,20.20
2015,04,20,17,25,20.10
2015,04,20,17,26,20.00
2015,04,20,17,27,19.90
2015,04,20,17,28,19.90
2015,04,20,17,29,19.90
2015,04,20,17,30,19.80
2015,04,20,17,31,19.80
2015,04,20,17,32,19.70
2015,04,20,17,33,19.70
2015,04,20,17,34,19.70
2015,04,20,17,35,19.70
2015,04,20,17,36,19.70
2015,04,20,17,37,19.60
2015,04,20,17,38,19.60
2015,04,20,17,39,19.50
2015,04,20,17,40,19.40